SCP
0 0 0 0 0 0 0 0 0 0 0 0 0 0 0 0 0 0 0 0 0 0 0 0 0 0 0 0 0 0 0 0 0 0 0 0 0 0 0 0 0 0 0 0 0 0 0 0 0 0 0 0 0 0
0 0 0 0 0 0 0 0 0 0 0 0 0 0 0 0 0 0 0 0 0 0 0 0 0 0 0 0 0 0 0 0 0 0 0 0 0 0 0 0 0 0 0 0 0 0 0 0 0 0 0 0 0 0
0 0 0 0 0 0 0 0 0 0 0 0 0 0 0 0 0 0 0 0 0 0 0 0 0 0 0 0 0 0 0 0 0 0 0 0 0 0 0 0 0 0 0 0 0 0 0 0 0 0 0 0 0 0
0 0 0 0 0 0 0 0 0 0 0 0 0 0 0 0 0 0 0 0 0 0 0 0 0 0 0 0 0 0 0 0 0 0 0 0 0 0 0 0 0 0 0 0 0 0 0 0 0 0 0 0 0 0
0 0 0 0 0 0 0 0 0 0 0 0 0 -0 -0 0 0 0 0 0 0 0 0 0 0 0 0 0 0 0 0 0 0 0 0 0 0 0 0 0 0 0 0 0 0 0 0 0 0 0 0 0 0 0
0 0 0 0 0 0 0 0 0 0 0 0 0 0 0 0 0 0 0 0 0 0 0 0 0 0 0 0 0 0 0 0 0 0 0 0 0 0 0 0 0 0 0 0 0 0 0 0 0 0 0 0 0 0
0 0 0 0 0 0 0 0 0 0 0 0 0 0 -0 0 0 0 0 0 0 0 0 0 0 0 0 0 0 0 0 0 0 0 0 0 0 0 0 0 0 0 0 0 0 0 0 0 0 0 0 0 0 0
0 0 0 0 0 -0 0 0 0 0 0 0 0 0 -0 0 0 0 0 0 0 0 0 0 0 0 0 0 0 0 0 0 0 0 0 0 0 0 0 0 0 0 0 0 0 0 0 0 0 0 0 0 0 0
0 0 0 0 0 0 0 0 0 0 0 0 0 0 0 0 0 0 0 0 0 0 0 0 0 0 0 0 0 0 0 0 0 0 0 0 0 0 0 0 0 0 0 0 0 0 0 0 0 0 0 0 0 0
0 0 0 0 0 0 0 0 0 -0 0 0 0 0 0 0 0 0 0 0 0 0 0 0 0 0 0 0 0 0 0 0 0 0 0 0 0 0 0 0 0 0 0 0 0 0 0 0 0 0 0 0 0 0
0 0 0 0 0 0 0 0 0 -0 -0 0 0 0 0 0 0 0 0 0 0 0 0 0 0 0 0 0 0 0 0 0 0 0 0 0 0 0 0 0 0 0 0 0 0 0 0 0 0 0 0 0 0 0
0 0 0 0 0 0 0 0 0 0 -0 0 0 0 0 0 0 0 0 0 0 0 0 0 0 0 0 0 0 0 0 0 0 0 0 0 0 0 0 0 0 0 0 0 0 0 0 0 0 0 0 0 0 0
0 0 0 0 0 0 0 0 0 0 0 -0 0 0 0 0 0 0 0 0 0 0 0 0 0 0 0 0 0 0 0 0 0 0 0 0 0 0 0 0 0 0 0 0 0 0 0 0 0 0 0 0 0 0
0 0 0 0 0 0 0 0 0 0 0 -0 0 0 0 0 0 0 0 0 0 0 0 0 0 0 0 0 0 0 0 0 0 0 0 0 0 0 0 0 0 0 0 0 0 0 0 0 0 0 0 0 0 0
-0 0 -0 0 0 0 0 0 0 0 0 0 0 0 0 0 0 0 0 0 0 0 0 0 0 0 0 0 0 0 0 0 0 0 0 0 0 0 0 0 0 0 0 0 0 0 0 0 0 0 0 0 0 0
0 0 0 0 0 0 0 0 0 0 0 0 0 0 0 0 0 0 0 0 0 0 0 0 0 0 0 0 0 0 0 0 0 0 0 0 0 0 0 0 0 0 0 0 0 0 0 0 0 0 0 0 0 0
-0 0 -0 -0 -0 -0 -0 0 0 0 0 0 0 0 0 0 0 0 0 0 0 0 0 0 0 0 0 0 0 0 0 0 0 0 0 0 0 0 0 0 0 0 0 0 0 0 0 0 0 0 0 0 0 0
-0 -0 -0 -0 0 -0 -0 0 0 0 0 0 0 0 0 0 0 0 0 0 0 0 0 0 0 0 0 0 0 0 0 0 0 0 0 0 0 0 0 0 0 0 0 0 0 0 0 0 0 0 0 0 0 0
-0 -0 -0 -0 -0 0 0 0 0 0 0 0 0 0 0 0 0 0 0 0 0 0 0 0 0 0 0 0 0 0 0 0 0 0 0 0 0 0 0 0 0 0 0 0 0 0 0 0 0 0 0 0 0 0
-0 -0 -0 -0 0 0 0 0 0 0 0 0 0 0 0 0 0 0 0 0 0 0 0 0 0 0 0 0 0 0 0 0 0 0 0 0 0 0 0 0 0 0 0 0 0 0 0 0 0 0 0 0 0 0
0 -0 -0 0 -0 0 0 0 0 0 0 0 0 0 0 0 0 0 0 0 0 0 0 0 0 0 0 0 0 0 0 0 0 0 0 0 0 0 0 0 0 0 0 0 0 0 0 0 0 0 0 0 0 0
-0 0 0 0 0 0 0 0 0 0 0 0 0 0 0 0 0 0 0 0 0 0 0 0 0 0 0 0 0 0 0 0 0 0 0 0 0 0 0 0 0 0 0 0 0 0 0 0 0 0 0 0 0 0
0 0 0 0 0 0 0 0 0 0 0 0 0 0 0 0 0 0 0 0 0 0 0 0 0 0 0 0 0 0 0 0 0 0 0 0 0 0 0 0 0 0 0 0 0 0 0 0 0 0 0 0 0 0
0 0 0 0 0 0 0 0 0 0 0 0 0 0 0 0 0 0 0 0 0 0 0 0 0 0 0 0 0 0 0 0 0 0 0 0 0 0 0 0 0 0 0 0 0 0 0 0 0 0 0 0 0 0
0 0 0 0 0 0 0 0 0 0 0 0 0 0 0 0 0 0 0 0 0 0 0 0 0 0 0 0 0 0 0 0 0 0 0 0 0 0 0 0 0 0 0 0 0 0 0 0 0 0 0 0 0 0
-0 0 0 0 0 0 0 0 0 0 0 0 0 0 0 0 0 0 0 0 0 0 0 0 0 0 0 0 0 0 0 0 0 0 0 0 0 0 0 0 0 0 0 0 0 0 0 0 0 0 0 0 0 0
-0 0 0 0 0 0 0 0 0 0 0 0 0 0 0 0 0 0 0 0 0 0 0 0 0 0 0 0 0 0 0 0 0 0 0 0 0 0 0 0 0 0 0 0 0 0 0 0 0 0 0 0 0 0
0 0 -0 -0 0 0 0 0 0 0 0 0 0 0 0 0 0 0 0 0 0 0 0 0 0 0 0 0 0 0 0 0 0 0 0 0 0 0 0 0 0 0 0 0 0 0 0 0 0 0 0 0 0 0
0 0 0 -0 -0 -0 0 0 0 0 0 0 0 0 0 0 0 0 0 0 0 0 0 0 0 0 0 0 0 0 0 0 0 0 0 0 0 0 0 0 0 0 0 0 0 0 0 0 0 0 0 0 0 0
-0 0 -0 -0 -0 -0 0 0 0 0 0 0 0 0 0 0 0 0 0 0 0 0 0 -0 -0 -0 -0 -0 0 0 0 0 0 0 0 0 0 0 0 0 0 0 0 0 0 0 0 0 0 0 0 0 0 0
0 0 -0 -0 -0 0 0 0 0 0 0 0 0 0 0 0 0 0 0 0 0 0 -0 -0 -0 -0 -0 -0 -0 0 0 0 0 0 0 0 0 0 0 0 0 0 0 0 0 0 0 0 0 0 0 0 0 0
0 0 0 -0 0 -0 0 0 0 0 0 0 0 0 0 0 0 0 0 0 0 0 -0 -0 -0 -0 -0 -0 0 0 0 0 0 0 0 0 0 -0 0 0 0 0 0 0 0 0 0 0 0 0 0 0 0 0
0 0 0 -0 -0 -0 0 0 -0 0 0 0 0 0 0 0 0 0 0 0 0 -0 -0 -0 -0 -0 -0 0 0 0 0 0 0 0 -0 -0 -0 -0 0 0 0 0 0 0 0 0 0 0 0 0 0 0 0 0
Wind_Speed_500mb
61 62 65 67 68 69 71 73 73 77 74 80 73 67 80 118 149 142 118 100 107 46 38 53 61 46 31 34 16 21 12 5 4 8 8 9 8 17 8 9 16 18 19 9 5 3 26 23 14 19 8 12 14 18
62 64 65 66 68 70 70 72 74 77 81 80 86 73 84 100 143 149 93 101 101 48 20 67 62 43 60 61 41 57 8 15 25 7 6 5 5 2 9 10 8 8 15 15 21 14 4 53 3 20 17 26 23 28
63 64 65 67 68 69 71 71 72 75 80 85 88 95 68 96 133 145 116 97 93 47 16 41 57 79 66 51 44 27 27 22 18 12 7 4 8 8 9 10 7 8 10 7 7 7 6 41 21 20 17 25 30 31
64 63 65 66 68 70 69 71 71 71 75 82 93 99 66 91 128 138 120 106 91 34 9 13 49 57 61 67 52 50 28 52 31 25 7 5 5 14 6 5 6 7 23 12 5 1 9 23 31 29 30 32 37 36
62 66 67 67 67 67 68 69 70 67 69 69 82 86 61 63 88 134 105 102 89 53 10 15 32 45 48 66 66 49 45 43 32 10 3 5 6 5 3 4 4 12 13 11 9 22 10 9 42 38 37 40 38 37
65 64 67 69 70 69 66 65 65 64 60 56 63 63 48 26 57 76 18 68 73 56 17 6 14 31 41 46 63 61 44 45 34 15 7 9 8 9 5 6 7 39 24 23 18 29 21 33 41 38 39 37 35 31
66 66 66 69 72 73 66 60 56 57 52 45 43 52 46 20 7 6 11 15 89 62 14 6 5 16 37 39 34 38 47 27 19 15 14 13 14 21 4 8 9 30 29 24 30 38 28 36 25 39 37 34 29 27
75 70 69 68 71 70 64 61 56 49 44 39 33 27 30 23 9 4 5 11 79 45 16 7 4 8 34 14 12 21 23 22 23 17 18 7 18 10 8 1 23 28 30 29 29 17 18 36 36 38 34 32 31 30
68 61 62 63 70 67 63 58 48 50 33 33 35 31 28 11 3 3 9 37 49 13 9 7 12 8 25 11 14 13 14 5 16 6 7 19 7 10 2 5 20 23 15 27 27 24 30 35 37 34 34 33 29 29
72 63 61 63 58 61 57 55 33 48 41 27 29 12 8 8 23 16 5 11 7 1 3 4 13 6 17 10 7 10 13 6 7 7 26 6 5 14 15 21 20 18 20 30 36 30 33 37 38 36 32 28 24 24
64 60 55 47 49 51 42 23 25 34 45 24 10 10 5 19 15 9 7 5 3 2 4 6 8 7 9 5 5 9 6 6 7 4 10 4 3 5 11 21 22 21 21 20 14 21 24 26 35 34 32 27 24 22
49 45 44 43 41 37 28 25 27 31 32 34 47 14 13 10 5 7 4 2 3 8 3 6 7 9 10 7 5 4 5 3 6 2 5 4 3 14 15 20 22 23 23 27 26 28 32 33 30 28 26 23 21 18
50 45 44 37 38 29 24 26 28 27 36 42 17 17 11 9 6 12 12 5 3 4 12 10 6 7 7 7 5 4 5 4 3 4 4 2 12 18 20 23 27 26 26 29 31 30 28 29 28 22 22 21 17 13
55 48 45 44 40 36 32 34 29 30 22 9 11 11 10 5 6 7 7 8 7 15 28 28 10 6 6 6 2 8 2 3 5 4 7 4 23 24 24 26 28 31 30 31 32 29 28 25 24 21 17 14 11 8
49 48 48 44 43 39 38 38 34 33 16 10 10 6 4 10 14 12 22 17 15 33 26 17 13 10 5 7 5 7 5 5 3 7 4 20 30 33 33 31 32 33 31 30 28 25 23 21 18 14 10 6 4 3
31 31 36 37 36 35 34 28 26 19 6 4 16 5 18 6 6 10 16 14 21 27 18 11 6 8 5 6 7 5 11 7 5 3 22 38 39 36 35 34 33 32 30 28 26 22 18 15 10 6 2 2 5 8
15 40 31 17 28 30 34 22 19 10 10 9 8 19 10 7 10 8 10 9 17 7 4 6 9 6 4 6 5 7 5 4 20 30 37 38 39 35 33 31 30 28 26 23 19 15 11 7 2 3 7 9 11 12
34 32 36 19 19 3 18 12 11 11 12 19 9 14 21 18 10 14 13 12 7 7 6 5 13 7 6 9 3 5 13 32 37 44 43 38 37 34 29 27 25 21 17 15 12 7 5 3 2 3 5 8 10 14
40 32 24 23 13 8 9 14 13 10 14 9 13 17 18 18 33 21 17 21 27 22 14 10 12 6 2 6 7 26 39 32 47 47 44 38 32 28 25 22 20 17 14 12 10 8 6 3 2 5 9 14 18 22
33 34 26 23 18 6 10 13 12 15 7 9 14 17 12 12 15 30 35 29 26 15 16 11 5 3 7 21 29 28 30 45 52 50 39 32 27 24 22 19 17 15 13 11 9 7 5 5 8 13 18 25 33 37
32 36 30 21 10 20 14 10 15 12 10 12 12 12 11 17 19 25 30 28 26 16 5 17 18 24 29 34 35 39 44 36 31 20 37 35 27 23 20 18 14 11 9 8 6 6 10 16 22 29 35 38 43 46
37 32 23 13 11 12 17 18 13 9 8 9 10 11 13 8 13 21 16 32 15 14 10 18 26 29 33 37 37 34 34 30 30 31 31 26 26 22 16 13 11 8 7 10 15 21 26 32 38 41 42 40 39 41
22 13 5 13 9 13 7 9 8 10 7 4 6 7 7 8 12 13 14 14 13 16 22 26 30 33 37 40 39 38 36 29 33 33 30 25 21 16 12 7 5 10 16 21 28 34 39 38 37 35 36 38 40 41
5 8 16 16 22 2 5 10 8 8 9 8 6 6 7 9 11 13 7 8 12 18 26 31 37 41 40 37 37 36 32 27 24 23 20 17 11 7 5 10 17 22 28 32 32 33 31 31 33 34 35 38 38 39
7 25 17 15 19 12 13 10 10 9 7 4 7 5 4 7 5 7 5 5 11 20 24 26 28 29 32 32 29 26 22 19 15 12 9 6 8 13 17 21 23 23 25 27 26 28 28 30 31 34 35 36 39 41
16 22 13 7 13 8 3 7 7 3 4 7 5 5 8 6 9 6 3 9 18 23 27 27 27 26 26 24 20 15 10 6 6 8 9 15 19 21 20 20 18 15 19 22 25 28 29 29 31 33 36 35 36 41
13 9 16 19 11 6 8 9 6 9 9 6 5 6 6 9 6 1 11 20 27 28 29 28 25 20 16 10 4 4 9 12 14 14 14 15 15 15 17 17 19 22 24 26 27 30 33 33 35 36 39 39 40 44
11 23 8 23 13 19 6 7 8 6 4 9 2 8 7 8 6 10 16 32 33 34 30 22 14 9 7 8 10 11 12 12 12 10 9 7 9 13 14 19 22 24 27 27 28 29 31 35 38 40 45 51 52 48
13 29 14 12 11 18 15 6 3 8 11 7 5 3 5 7 20 35 39 37 36 31 26 25 26 25 21 17 15 14 14 11 8 6 6 8 6 10 16 19 22 25 28 29 27 31 33 36 37 45 49 49 49 48
18 29 9 10 9 9 13 14 11 14 17 15 14 25 31 33 34 38 38 35 31 28 22 23 27 30 32 26 19 16 14 11 10 11 15 17 18 18 20 22 25 26 28 30 30 29 29 32 34 35 36 38 41 45
20 15 8 13 9 8 14 21 26 29 29 31 39 36 32 30 35 29 26 25 21 13 13 19 25 30 32 33 31 25 18 14 14 18 22 24 24 24 26 27 28 29 29 28 30 32 34 36 39 42 43 44 44 47
19 16 7 7 4 9 11 11 15 17 20 24 24 26 20 13 10 7 14 14 8 8 13 21 28 28 29 32 32 29 21 18 21 24 25 26 25 26 28 28 29 31 33 35 36 38 39 40 42 43 46 47 49 50
8 14 13 7 5 5 9 7 8 9 12 9 12 12 10 7 8 6 16 8 7 15 25 28 25 25 32 33 31 22 23 27 26 26 27 28 30 33 34 35 36 37 39 40 39 40 40 40 41 42 44 47 49 50
Wind_Direction_500mb
344 344 343 342 342 343 344 345 344 344 343 343 332 281 249 237 228 209 213 214 208 212 220 205 208 194 171 186 175 149 105 192 80 188 168 187 171 209 130 152 173 158 156 181 106 153 262 152 116 170 175 105 130 148
338 337 337 337 338 338 338 340 340 338 339 339 339 319 248 245 223 207 205 213 210 211 220 208 207 201 208 207 193 167 170 161 177 176 204 144 169 134 151 207 166 202 183 177 188 208 197 173 130 179 152 148 137 138
331 332 331 332 332 332 333 334 336 336 335 338 338 331 282 229 222 204 206 205 191 195 197 192 209 211 208 197 198 175 216 199 201 191 161 192 205 132 165 232 110 258 180 167 115 278 211 179 146 164 168 162 150 145
326 327 326 325 325 326 327 328 331 333 336 336 339 338 308 229 214 206 199 203 184 170 178 190 212 206 219 219 206 215 229 202 207 182 157 163 193 198 203 164 172 190 147 158 271 170 116 195 212 179 164 160 159 151
319 321 323 321 320 320 320 321 323 328 334 336 337 344 343 214 213 195 195 190 182 178 144 144 179 205 212 213 204 211 215 200 180 156 144 207 139 120 3 49 226 192 166 173 211 186 154 167 197 187 177 169 168 168
311 313 317 319 318 315 312 312 314 319 327 334 337 342 348 78 145 156 107 172 181 187 120 157 166 179 192 202 209 191 197 201 197 174 165 186 153 130 174 236 237 185 188 187 173 162 162 148 166 177 175 169 170 174
298 303 309 314 315 310 304 302 305 309 314 326 332 336 342 314 240 145 165 190 193 190 142 116 129 153 179 171 176 190 195 193 190 178 188 160 181 175 195 232 191 190 188 173 156 144 128 157 163 176 183 176 178 176
286 291 297 306 310 304 298 297 295 294 302 307 315 311 328 341 348 8 128 161 189 179 169 149 94 134 157 141 135 159 162 168 175 180 169 157 141 161 228 44 149 159 163 155 165 189 186 176 164 166 172 172 168 162
283 288 296 300 305 297 296 294 288 291 291 291 297 293 279 243 253 102 105 165 178 176 175 131 145 190 166 135 136 141 150 150 177 185 181 147 148 204 14 341 151 161 174 161 151 150 148 157 157 159 165 161 169 162
293 294 294 297 295 293 293 288 286 290 290 283 283 281 250 181 150 143 170 192 223 261 112 89 123 144 161 143 143 129 165 159 175 191 148 195 102 83 71 105 135 152 151 156 150 143 154 152 157 156 160 164 168 163
293 292 293 291 290 288 283 303 313 315 305 287 241 232 257 176 179 161 133 135 127 99 132 90 105 126 168 142 131 153 161 156 164 201 162 170 119 86 109 108 115 129 142 151 161 156 163 171 163 161 160 163 164 161
302 295 292 293 290 281 278 295 301 300 304 295 299 209 179 215 183 119 162 89 160 193 98 110 106 104 127 126 112 157 137 102 165 127 122 210 104 126 131 116 115 119 123 122 127 135 142 148 153 155 153 150 148 148
300 300 298 291 285 289 284 285 293 291 298 308 276 164 170 212 188 168 178 254 155 157 151 142 94 98 102 89 70 93 115 106 135 85 180 151 134 139 132 127 123 121 122 123 123 124 128 132 131 134 139 140 142 146
283 284 286 290 285 291 281 279 284 291 281 250 259 196 176 176 234 180 169 150 123 135 131 117 78 89 70 62 28 92 59 96 77 110 232 170 163 146 140 134 132 122 119 117 115 116 118 120 124 127 131 134 141 154
285 277 275 279 279 283 281 279 274 264 245 246 298 280 164 127 65 99 107 106 103 139 129 102 74 86 39 88 52 108 81 116 158 201 135 153 154 148 143 138 133 127 123 121 118 119 117 117 119 122 129 144 163 212
310 291 282 281 277 273 272 263 245 225 203 71 33 7 354 36 3 56 65 92 123 135 110 84 99 69 50 115 80 156 120 182 163 96 130 146 145 145 142 139 133 128 125 124 123 122 121 121 120 121 140 256 285 291
44 27 357 295 282 288 279 233 195 118 81 64 46 28 55 16 41 37 78 88 127 112 116 103 79 183 100 63 69 12 112 115 118 119 138 143 140 138 137 134 130 128 126 124 123 121 115 105 85 304 295 294 286 282
27 23 16 339 291 291 59 75 92 82 76 42 71 8 54 52 27 36 55 63 61 79 46 131 118 73 109 131 234 154 114 121 127 131 132 135 135 132 131 130 126 123 121 120 120 126 135 154 217 262 274 276 279 285
13 5 1 11 16 25 58 40 39 87 61 73 66 55 58 69 58 52 63 82 85 87 95 50 61 66 81 23 59 123 133 136 133 130 128 129 130 131 132 131 129 126 122 113 104 98 92 76 348 311 300 300 299 301
4 5 9 4 359 65 72 44 50 75 62 55 48 38 53 49 44 49 55 64 65 48 45 39 52 42 90 99 117 125 131 140 135 128 127 130 129 126 124 121 117 111 103 98 93 79 58 13 335 320 312 310 308 306
349 355 358 2 27 57 75 55 60 65 84 73 57 44 49 39 33 28 24 27 58 39 64 50 80 94 109 113 118 124 130 139 138 136 143 138 130 125 121 115 109 104 94 80 54 4 339 327 317 314 312 311 308 306
335 337 339 12 63 65 65 48 75 79 71 78 52 47 44 30 17 15 19 48 57 34 74 109 103 106 110 111 112 118 115 116 113 117 120 121 122 121 116 107 97 74 28 351 329 325 321 316 315 314 313 314 311 310
315 314 5 40 86 60 55 56 69 39 72 33 56 51 33 34 17 17 70 58 72 63 99 107 107 108 108 107 108 107 105 106 107 105 106 106 106 106 103 87 27 340 328 321 316 315 314 317 315 314 313 312 312 313
26 53 34 38 31 68 64 43 60 68 63 40 49 64 17 353 16 61 72 59 72 100 107 106 111 110 107 109 107 102 101 100 98 98 98 97 89 73 11 323 316 314 309 307 311 312 316 316 315 315 317 316 318 317
69 10 20 3 20 33 34 18 4 48 60 354 81 36 358 359 74 59 72 73 99 111 112 111 113 116 114 107 103 101 101 100 91 78 65 20 338 321 312 308 309 308 303 312 315 317 320 321 321 321 322 323 323 323
65 13 36 336 0 56 323 55 32 62 78 55 35 337 4 66 62 56 54 119 122 117 114 115 113 111 106 104 104 101 90 64 16 343 327 316 314 314 321 326 327 323 322 323 321 322 324 326 325 325 325 326 325 323
45 339 14 25 8 356 48 59 67 66 59 58 333 17 54 65 70 316 118 128 128 121 115 110 107 102 98 96 67 336 317 314 315 315 315 312 311 317 322 324 325 325 325 323 321 318 319 323 324 325 323 323 327 328
54 23 39 342 26 29 99 46 41 47 321 355 320 45 100 142 166 142 131 133 126 121 114 104 82 50 14 345 326 316 315 317 318 320 316 312 307 313 314 313 312 313 314 312 311 312 312 313 317 320 321 322 325 328
28 353 356 21 44 44 44 58 356 13 354 3 100 98 108 73 124 129 132 130 126 117 103 87 71 55 37 21 1 347 343 335 330 328 330 333 332 311 317 312 314 316 313 313 311 310 310 314 317 305 306 309 311 312
4 2 24 43 55 21 13 26 36 45 54 68 89 102 95 101 115 124 127 127 124 119 92 63 45 35 32 30 21 353 352 342 334 331 335 339 335 332 326 323 321 318 314 312 312 310 305 301 301 302 307 313 318 318
352 357 58 51 78 48 62 67 69 70 74 75 88 93 97 104 102 112 124 128 126 97 50 25 11 7 7 9 6 3 359 342 335 333 331 331 330 329 326 325 322 319 317 317 317 319 322 324 325 325 324 323 324 323
11 33 53 79 84 49 61 56 65 68 69 88 85 95 95 91 82 109 125 131 107 55 10 353 347 346 350 353 351 346 342 336 327 324 322 323 325 324 324 324 323 325 327 327 328 328 326 323 323 325 325 325 325 325
21 33 53 77 75 67 24 51 72 86 63 52 45 55 59 73 100 122 148 138 9 346 339 335 337 343 342 340 339 334 327 324 323 321 321 324 327 329 330 329 327 326 326 327 326 324 323 323 324 326 326 325 326 327
Wind_Speed_850mb
61 62 65 67 68 69 71 73 73 77 74 80 73 67 80 118 149 142 118 100 107 46 38 53 61 46 31 34 16 21 12 5 4 8 8 9 8 17 8 9 16 18 19 9 5 3 26 23 14 19 8 12 14 18
62 64 65 66 68 70 70 72 74 77 81 80 86 73 84 100 143 149 93 101 101 48 20 67 62 43 60 61 41 57 8 15 25 7 6 5 5 2 9 10 8 8 15 15 21 14 4 53 3 20 17 26 23 28
63 64 65 67 68 69 71 71 72 75 80 85 88 95 68 96 133 145 116 97 93 47 16 41 57 79 66 51 44 27 27 22 18 12 7 4 8 8 9 10 7 8 10 7 7 7 6 41 21 20 17 25 30 31
64 63 65 66 68 70 69 71 71 71 75 82 93 99 66 91 128 138 120 106 91 34 9 13 49 57 61 67 52 50 28 52 31 25 7 5 5 14 6 5 6 7 23 12 5 1 9 23 31 29 30 32 37 36
62 66 67 67 67 67 68 69 70 67 69 69 82 86 61 63 88 134 105 102 89 53 10 15 32 45 48 66 66 49 45 43 32 10 3 5 6 5 3 4 4 12 13 11 9 22 10 9 42 38 37 40 38 37
65 64 67 69 70 69 66 65 65 64 60 56 63 63 48 26 57 76 18 68 73 56 17 6 14 31 41 46 63 61 44 45 34 15 7 9 8 9 5 6 7 39 24 23 18 29 21 33 41 38 39 37 35 31
66 66 66 69 72 73 66 60 56 57 52 45 43 52 46 20 7 6 11 15 89 62 14 6 5 16 37 39 34 38 47 27 19 15 14 13 14 21 4 8 9 30 29 24 30 38 28 36 25 39 37 34 29 27
75 70 69 68 71 70 64 61 56 49 44 39 33 27 30 23 9 4 5 11 79 45 16 7 4 8 34 14 12 21 23 22 23 17 18 7 18 10 8 1 23 28 30 29 29 17 18 36 36 38 34 32 31 30
68 61 62 63 70 67 63 58 48 50 33 33 35 31 28 11 3 3 9 37 49 13 9 7 12 8 25 11 14 13 14 5 16 6 7 19 7 10 2 5 20 23 15 27 27 24 30 35 37 34 34 33 29 29
72 63 61 63 58 61 57 55 33 48 41 27 29 12 8 8 23 16 5 11 7 1 3 4 13 6 17 10 7 10 13 6 7 7 26 6 5 14 15 21 20 18 20 30 36 30 33 37 38 36 32 28 24 24
64 60 55 47 49 51 42 23 25 34 45 24 10 10 5 19 15 9 7 5 3 2 4 6 8 7 9 5 5 9 6 6 7 4 10 4 3 5 11 21 22 21 21 20 14 21 24 26 35 34 32 27 24 22
49 45 44 43 41 37 28 25 27 31 32 34 47 14 13 10 5 7 4 2 3 8 3 6 7 9 10 7 5 4 5 3 6 2 5 4 3 14 15 20 22 23 23 27 26 28 32 33 30 28 26 23 21 18
50 45 44 37 38 29 24 26 28 27 36 42 17 17 11 9 6 12 12 5 3 4 12 10 6 7 7 7 5 4 5 4 3 4 4 2 12 18 20 23 27 26 26 29 31 30 28 29 28 22 22 21 17 13
55 48 45 44 40 36 32 34 29 30 22 9 11 11 10 5 6 7 7 8 7 15 28 28 10 6 6 6 2 8 2 3 5 4 7 4 23 24 24 26 28 31 30 31 32 29 28 25 24 21 17 14 11 8
49 48 48 44 43 39 38 38 34 33 16 10 10 6 4 10 14 12 22 17 15 33 26 17 13 10 5 7 5 7 5 5 3 7 4 20 30 33 33 31 32 33 31 30 28 25 23 21 18 14 10 6 4 3
31 31 36 37 36 35 34 28 26 19 6 4 16 5 18 6 6 10 16 14 21 27 18 11 6 8 5 6 7 5 11 7 5 3 22 38 39 36 35 34 33 32 30 28 26 22 18 15 10 6 2 2 5 8
15 40 31 17 28 30 34 22 19 10 10 9 8 19 10 7 10 8 10 9 17 7 4 6 9 6 4 6 5 7 5 4 20 30 37 38 39 35 33 31 30 28 26 23 19 15 11 7 2 3 7 9 11 12
34 32 36 19 19 3 18 12 11 11 12 19 9 14 21 18 10 14 13 12 7 7 6 5 13 7 6 9 3 5 13 32 37 44 43 38 37 34 29 27 25 21 17 15 12 7 5 3 2 3 5 8 10 14
40 32 24 23 13 8 9 14 13 10 14 9 13 17 18 18 33 21 17 21 27 22 14 10 12 6 2 6 7 26 39 32 47 47 44 38 32 28 25 22 20 17 14 12 10 8 6 3 2 5 9 14 18 22
33 34 26 23 18 6 10 13 12 15 7 9 14 17 12 12 15 30 35 29 26 15 16 11 5 3 7 21 29 28 30 45 52 50 39 32 27 24 22 19 17 15 13 11 9 7 5 5 8 13 18 25 33 37
32 36 30 21 10 20 14 10 15 12 10 12 12 12 11 17 19 25 30 28 26 16 5 17 18 24 29 34 35 39 44 36 31 20 37 35 27 23 20 18 14 11 9 8 6 6 10 16 22 29 35 38 43 46
37 32 23 13 11 12 17 18 13 9 8 9 10 11 13 8 13 21 16 32 15 14 10 18 26 29 33 37 37 34 34 30 30 31 31 26 26 22 16 13 11 8 7 10 15 21 26 32 38 41 42 40 39 41
22 13 5 13 9 13 7 9 8 10 7 4 6 7 7 8 12 13 14 14 13 16 22 26 30 33 37 40 39 38 36 29 33 33 30 25 21 16 12 7 5 10 16 21 28 34 39 38 37 35 36 38 40 41
5 8 16 16 22 2 5 10 8 8 9 8 6 6 7 9 11 13 7 8 12 18 26 31 37 41 40 37 37 36 32 27 24 23 20 17 11 7 5 10 17 22 28 32 32 33 31 31 33 34 35 38 38 39
7 25 17 15 19 12 13 10 10 9 7 4 7 5 4 7 5 7 5 5 11 20 24 26 28 29 32 32 29 26 22 19 15 12 9 6 8 13 17 21 23 23 25 27 26 28 28 30 31 34 35 36 39 41
16 22 13 7 13 8 3 7 7 3 4 7 5 5 8 6 9 6 3 9 18 23 27 27 27 26 26 24 20 15 10 6 6 8 9 15 19 21 20 20 18 15 19 22 25 28 29 29 31 33 36 35 36 41
13 9 16 19 11 6 8 9 6 9 9 6 5 6 6 9 6 1 11 20 27 28 29 28 25 20 16 10 4 4 9 12 14 14 14 15 15 15 17 17 19 22 24 26 27 30 33 33 35 36 39 39 40 44
11 23 8 23 13 19 6 7 8 6 4 9 2 8 7 8 6 10 16 32 33 34 30 22 14 9 7 8 10 11 12 12 12 10 9 7 9 13 14 19 22 24 27 27 28 29 31 35 38 40 45 51 52 48
13 29 14 12 11 18 15 6 3 8 11 7 5 3 5 7 20 35 39 37 36 31 26 25 26 25 21 17 15 14 14 11 8 6 6 8 6 10 16 19 22 25 28 29 27 31 33 36 37 45 49 49 49 48
18 29 9 10 9 9 13 14 11 14 17 15 14 25 31 33 34 38 38 35 31 28 22 23 27 30 32 26 19 16 14 11 10 11 15 17 18 18 20 22 25 26 28 30 30 29 29 32 34 35 36 38 41 45
20 15 8 13 9 8 14 21 26 29 29 31 39 36 32 30 35 29 26 25 21 13 13 19 25 30 32 33 31 25 18 14 14 18 22 24 24 24 26 27 28 29 29 28 30 32 34 36 39 42 43 44 44 47
19 16 7 7 4 9 11 11 15 17 20 24 24 26 20 13 10 7 14 14 8 8 13 21 28 28 29 32 32 29 21 18 21 24 25 26 25 26 28 28 29 31 33 35 36 38 39 40 42 43 46 47 49 50
8 14 13 7 5 5 9 7 8 9 12 9 12 12 10 7 8 6 16 8 7 15 25 28 25 25 32 33 31 22 23 27 26 26 27 28 30 33 34 35 36 37 39 40 39 40 40 40 41 42 44 47 49 50
Wind_Direction_850mb
344 344 343 342 342 343 344 345 344 344 343 343 332 281 249 237 228 209 213 214 208 212 220 205 208 194 171 186 175 149 105 192 80 188 168 187 171 209 130 152 173 158 156 181 106 153 262 152 116 170 175 105 130 148
338 337 337 337 338 338 338 340 340 338 339 339 339 319 248 245 223 207 205 213 210 211 220 208 207 201 208 207 193 167 170 161 177 176 204 144 169 134 151 207 166 202 183 177 188 208 197 173 130 179 152 148 137 138
331 332 331 332 332 332 333 334 336 336 335 338 338 331 282 229 222 204 206 205 191 195 197 192 209 211 208 197 198 175 216 199 201 191 161 192 205 132 165 232 110 258 180 167 115 278 211 179 146 164 168 162 150 145
326 327 326 325 325 326 327 328 331 333 336 336 339 338 308 229 214 206 199 203 184 170 178 190 212 206 219 219 206 215 229 202 207 182 157 163 193 198 203 164 172 190 147 158 271 170 116 195 212 179 164 160 159 151
319 321 323 321 320 320 320 321 323 328 334 336 337 344 343 214 213 195 195 190 182 178 144 144 179 205 212 213 204 211 215 200 180 156 144 207 139 120 3 49 226 192 166 173 211 186 154 167 197 187 177 169 168 168
311 313 317 319 318 315 312 312 314 319 327 334 337 342 348 78 145 156 107 172 181 187 120 157 166 179 192 202 209 191 197 201 197 174 165 186 153 130 174 236 237 185 188 187 173 162 162 148 166 177 175 169 170 174
298 303 309 314 315 310 304 302 305 309 314 326 332 336 342 314 240 145 165 190 193 190 142 116 129 153 179 171 176 190 195 193 190 178 188 160 181 175 195 232 191 190 188 173 156 144 128 157 163 176 183 176 178 176
286 291 297 306 310 304 298 297 295 294 302 307 315 311 328 341 348 8 128 161 189 179 169 149 94 134 157 141 135 159 162 168 175 180 169 157 141 161 228 44 149 159 163 155 165 189 186 176 164 166 172 172 168 162
283 288 296 300 305 297 296 294 288 291 291 291 297 293 279 243 253 102 105 165 178 176 175 131 145 190 166 135 136 141 150 150 177 185 181 147 148 204 14 341 151 161 174 161 151 150 148 157 157 159 165 161 169 162
293 294 294 297 295 293 293 288 286 290 290 283 283 281 250 181 150 143 170 192 223 261 112 89 123 144 161 143 143 129 165 159 175 191 148 195 102 83 71 105 135 152 151 156 150 143 154 152 157 156 160 164 168 163
293 292 293 291 290 288 283 303 313 315 305 287 241 232 257 176 179 161 133 135 127 99 132 90 105 126 168 142 131 153 161 156 164 201 162 170 119 86 109 108 115 129 142 151 161 156 163 171 163 161 160 163 164 161
302 295 292 293 290 281 278 295 301 300 304 295 299 209 179 215 183 119 162 89 160 193 98 110 106 104 127 126 112 157 137 102 165 127 122 210 104 126 131 116 115 119 123 122 127 135 142 148 153 155 153 150 148 148
300 300 298 291 285 289 284 285 293 291 298 308 276 164 170 212 188 168 178 254 155 157 151 142 94 98 102 89 70 93 115 106 135 85 180 151 134 139 132 127 123 121 122 123 123 124 128 132 131 134 139 140 142 146
283 284 286 290 285 291 281 279 284 291 281 250 259 196 176 176 234 180 169 150 123 135 131 117 78 89 70 62 28 92 59 96 77 110 232 170 163 146 140 134 132 122 119 117 115 116 118 120 124 127 131 134 141 154
285 277 275 279 279 283 281 279 274 264 245 246 298 280 164 127 65 99 107 106 103 139 129 102 74 86 39 88 52 108 81 116 158 201 135 153 154 148 143 138 133 127 123 121 118 119 117 117 119 122 129 144 163 212
310 291 282 281 277 273 272 263 245 225 203 71 33 7 354 36 3 56 65 92 123 135 110 84 99 69 50 115 80 156 120 182 163 96 130 146 145 145 142 139 133 128 125 124 123 122 121 121 120 121 140 256 285 291
44 27 357 295 282 288 279 233 195 118 81 64 46 28 55 16 41 37 78 88 127 112 116 103 79 183 100 63 69 12 112 115 118 119 138 143 140 138 137 134 130 128 126 124 123 121 115 105 85 304 295 294 286 282
27 23 16 339 291 291 59 75 92 82 76 42 71 8 54 52 27 36 55 63 61 79 46 131 118 73 109 131 234 154 114 121 127 131 132 135 135 132 131 130 126 123 121 120 120 126 135 154 217 262 274 276 279 285
13 5 1 11 16 25 58 40 39 87 61 73 66 55 58 69 58 52 63 82 85 87 95 50 61 66 81 23 59 123 133 136 133 130 128 129 130 131 132 131 129 126 122 113 104 98 92 76 348 311 300 300 299 301
4 5 9 4 359 65 72 44 50 75 62 55 48 38 53 49 44 49 55 64 65 48 45 39 52 42 90 99 117 125 131 140 135 128 127 130 129 126 124 121 117 111 103 98 93 79 58 13 335 320 312 310 308 306
349 355 358 2 27 57 75 55 60 65 84 73 57 44 49 39 33 28 24 27 58 39 64 50 80 94 109 113 118 124 130 139 138 136 143 138 130 125 121 115 109 104 94 80 54 4 339 327 317 314 312 311 308 306
335 337 339 12 63 65 65 48 75 79 71 78 52 47 44 30 17 15 19 48 57 34 74 109 103 106 110 111 112 118 115 116 113 117 120 121 122 121 116 107 97 74 28 351 329 325 321 316 315 314 313 314 311 310
315 314 5 40 86 60 55 56 69 39 72 33 56 51 33 34 17 17 70 58 72 63 99 107 107 108 108 107 108 107 105 106 107 105 106 106 106 106 103 87 27 340 328 321 316 315 314 317 315 314 313 312 312 313
26 53 34 38 31 68 64 43 60 68 63 40 49 64 17 353 16 61 72 59 72 100 107 106 111 110 107 109 107 102 101 100 98 98 98 97 89 73 11 323 316 314 309 307 311 312 316 316 315 315 317 316 318 317
69 10 20 3 20 33 34 18 4 48 60 354 81 36 358 359 74 59 72 73 99 111 112 111 113 116 114 107 103 101 101 100 91 78 65 20 338 321 312 308 309 308 303 312 315 317 320 321 321 321 322 323 323 323
65 13 36 336 0 56 323 55 32 62 78 55 35 337 4 66 62 56 54 119 122 117 114 115 113 111 106 104 104 101 90 64 16 343 327 316 314 314 321 326 327 323 322 323 321 322 324 326 325 325 325 326 325 323
45 339 14 25 8 356 48 59 67 66 59 58 333 17 54 65 70 316 118 128 128 121 115 110 107 102 98 96 67 336 317 314 315 315 315 312 311 317 322 324 325 325 325 323 321 318 319 323 324 325 323 323 327 328
54 23 39 342 26 29 99 46 41 47 321 355 320 45 100 142 166 142 131 133 126 121 114 104 82 50 14 345 326 316 315 317 318 320 316 312 307 313 314 313 312 313 314 312 311 312 312 313 317 320 321 322 325 328
28 353 356 21 44 44 44 58 356 13 354 3 100 98 108 73 124 129 132 130 126 117 103 87 71 55 37 21 1 347 343 335 330 328 330 333 332 311 317 312 314 316 313 313 311 310 310 314 317 305 306 309 311 312
4 2 24 43 55 21 13 26 36 45 54 68 89 102 95 101 115 124 127 127 124 119 92 63 45 35 32 30 21 353 352 342 334 331 335 339 335 332 326 323 321 318 314 312 312 310 305 301 301 302 307 313 318 318
352 357 58 51 78 48 62 67 69 70 74 75 88 93 97 104 102 112 124 128 126 97 50 25 11 7 7 9 6 3 359 342 335 333 331 331 330 329 326 325 322 319 317 317 317 319 322 324 325 325 324 323 324 323
11 33 53 79 84 49 61 56 65 68 69 88 85 95 95 91 82 109 125 131 107 55 10 353 347 346 350 353 351 346 342 336 327 324 322 323 325 324 324 324 323 325 327 327 328 328 326 323 323 325 325 325 325 325
21 33 53 77 75 67 24 51 72 86 63 52 45 55 59 73 100 122 148 138 9 346 339 335 337 343 342 340 339 334 327 324 323 321 321 324 327 329 330 329 327 326 326 327 326 324 323 323 324 326 326 325 326 327